Kailua Kona, HI

4:23 AM HST on February 22, 2017 (GMT -1000)
Kona International At Keahole

Weather History for PHKO - December, 2013

Change the Weather History Date:

Wednesday, December 4, 2013

  Actual Average Record
Temperature  
Mean Temperature 76 °F -  
Max Temperature 82 °F 80 °F 88 °F (1983)
Min Temperature 70 °F 68 °F 66 °F (2000)
Cooling Degree Days 11    
Growing Degree Days 26 (Base 50)    
Moisture  
Dew Point 64 °F    
Average Humidity 65    
Maximum Humidity 79    
Minimum Humidity 47    
Precipitation  
Precipitation 0.00 in - - ()
Sea Level Pressure  
Sea Level Pressure 29.93 in    
Wind  
Wind Speed 6 mph (SSE)    
Max Wind Speed 12 mph    
Max Gust Speed -    
Visibility 10 miles    
Events      
Averages and records for this station are not official NWS values.
T = Trace of Precipitation, MM = Missing Value Source: NWS Daily Summary

Daily Weather History Graph

Daily Weather History Graph

Search for Another Location

Airport or City:

Trip Planner

Search our weather history database for the weather conditions in past years. The results will help you decide how hot, cold, wet, or windy it might be!

Date:

Astronomy

Dec. 04, 2013 Rise Set
Actual Time 6:44 AM HST 5:44 PM HST
Civil Twilight 6:20 AM HST 6:08 PM HST
Nautical Twilight 5:53 AM HST 6:35 PM HST
Astronomical Twilight 5:26 AM HST 7:02 PM HST
Moon 8:28 AM HST (12/4) 8:00 PM HST (12/4)
Length of Visible Light 11h 47m
Length of Day
11h 00m
Waxing Crescent, 5% of the Moon is Illuminated
Dec 4
Waxing Crescent
Dec 9
First Quarter
Dec 16
Full
Dec 25
Last Quarter
Jan 1
New

Hourly Weather History & Observations

Time (HST) Temp. Heat Index Dew Point Humidity Pressure Visibility Wind Dir Wind Speed Gust Speed Precip Events Conditions
12:53 AM 75.0 °F - 66.0 °F 73% 29.96 in 10.0 mi ENE 3.5 mph - N/A   Mostly Cloudy
1:53 AM 73.9 °F - 66.9 °F 79% 29.95 in 10.0 mi ENE 4.6 mph - N/A   Mostly Cloudy
2:53 AM 73.9 °F - 66.0 °F 76% 29.93 in 10.0 mi NE 4.6 mph - 0.00 in   Scattered Clouds
3:53 AM 73.0 °F - 62.1 °F 68% 29.91 in 10.0 mi NE 4.6 mph - N/A   Clear
4:53 AM 71.1 °F - 62.1 °F 73% 29.91 in 10.0 mi East 3.5 mph - N/A   Clear
5:53 AM 70.0 °F - 60.1 °F 71% 29.92 in 10.0 mi ENE 4.6 mph - N/A   Clear
6:53 AM 71.1 °F - 61.0 °F 70% 29.93 in 10.0 mi East 4.6 mph - N/A   Clear
7:53 AM 73.9 °F - 61.0 °F 64% 29.95 in 10.0 mi ESE 4.6 mph - N/A   Clear
8:53 AM 79.0 °F - 59.0 °F 50% 29.96 in 10.0 mi SSE 9.2 mph - N/A   Clear
9:53 AM 80.1 °F 80.6 °F 57.9 °F 47% 29.97 in 10.0 mi SSW 9.2 mph - N/A   Clear
10:53 AM 81.0 °F 82.5 °F 64.0 °F 56% 29.96 in 10.0 mi SSW 9.2 mph - N/A   Clear
11:53 AM 81.0 °F 83.3 °F 66.9 °F 62% 29.94 in 10.0 mi SW 10.4 mph - N/A   Clear
12:53 PM 81.0 °F 83.3 °F 66.9 °F 62% 29.90 in 10.0 mi SSW 9.2 mph - N/A   Clear
1:53 PM 82.0 °F 84.5 °F 66.9 °F 60% 29.87 in 10.0 mi SW 10.4 mph - N/A   Scattered Clouds
2:53 PM 80.1 °F 82.3 °F 66.9 °F 64% 29.86 in 10.0 mi South 10.4 mph - N/A   Overcast
3:53 PM 81.0 °F 81.9 °F 62.1 °F 52% 29.86 in 10.0 mi SSW 10.4 mph - N/A   Overcast
4:53 PM 80.1 °F 81.7 °F 64.0 °F 58% 29.88 in 10.0 mi South 8.1 mph - N/A   Overcast
5:53 PM 79.0 °F - 64.9 °F 62% 29.92 in 10.0 mi SSW 9.2 mph - N/A   Mostly Cloudy
6:53 PM 79.0 °F - 66.9 °F 66% 29.95 in 10.0 mi WSW 11.5 mph - N/A   Overcast
7:53 PM 79.0 °F - 66.9 °F 66% 29.98 in 10.0 mi WSW 10.4 mph - N/A   Overcast
8:53 PM 78.1 °F - 66.0 °F 66% 29.99 in 10.0 mi West 9.2 mph - N/A   Overcast
9:53 PM 78.1 °F - 64.0 °F 62% 29.98 in 10.0 mi Calm Calm - N/A   Mostly Cloudy
10:53 PM 75.9 °F - 66.0 °F 71% 29.97 in 10.0 mi Calm Calm - N/A   Scattered Clouds
11:53 PM 73.9 °F - 64.9 °F 73% 29.96 in 10.0 mi East 4.6 mph - N/A   Clear